Location: Zlin
(49.2330°N, 17.6670°E)
Time: 08:12:24
(UTC+01:00)

SEEDS - Visible Passes

Search period start: 11 November 2024 00:00
Search period end: 21 November 2024 00:00
Orbit: 532 x 540 km, 97.7° (Epoch: 10 November)

Date Brightness Start Highest point End Pass type
(mag) Time Alt. Az. Time Alt. Az. Time Alt. Az.
11 Nov ? 04:50:12 10° N 04:50:49 14° N 04:50:49 14° N visible
12 Nov ? 04:41:34 10° N 04:42:02 13° N 04:42:02 13° N visible
13 Nov ? 04:32:56 10° N 04:33:12 12° N 04:33:12 12° N visible
14 Nov ? 04:24:15 10° N 04:24:20 10° N 04:24:20 10° N visible
